STARLINK-11276 [DTC] (61244 NORAD) Tracking and Keplerian Element Data

This shows tracking and keplerian element data for the satellite.

Feedback or suggestion? Click here.




ElementValue
Catalog61244
NameSTARLINK-11276 [DTC]
Epoch Orbit279
Epoch Day286.81516046
Epoch Year2024
RAAN66.0403
Inclination53.1567
Eccentricity9.04E-05
Argument of Perigee82.3873
Mean Anonmoly277.7251
Mean Motion15.76858127
Decay Rate0.00079474
L11 61244U 24175B 24286.81516046 .00079474 00000+0 48228-3 0 9996
L22 61244 53.1567 66.0403 0000904 82.3873 277.7251 15.76858127 2798



Live tracking and technical data element details for STARLINK-11276 [DTC] (NORAD 61244). STARLINK-11276 [DTC] can be tracked NOW for your location showing map with azimuth and elevation plus other details from your city location.







IsCatalogInMostPopularTable: catalog: 61244, numindb: 24
Update: records affected: 1



GetName: 61244 STARLINK-11276 [DTC]

Hit Count: updated at: Wed, 04 Dec 2024 12:42:54 GMT